Location: *
(50.6089°N, 2.2719°E)
Time: 17:21:35
(UTC+00:00)

Cosmos 2263 Rocket - Pass Details

Date: 18 October 2019
Orbit: 825 x 847 km, 71.0° (Epoch: 14 November)

Event Time Altitude Azimuth Distance (km) Brightness Sun altitude
Rises 18:02:21 0° 254° (WSW) 3,398 7.0 -11.6°
Reaches altitude 10° 18:05:18 10° 268° (W) 2,463 6.2 -12.1°
Maximum altitude 18:09:46 23° 321° (NW) 1,702 4.3 -12.8°
Drops below altitude 10° 18:14:15 10° 13° (NNE) 2,460 4.5 -13.5°
Sets 18:17:12 0° 28° (NNE) 3,394 5.1 -14.0°
